This is the latest recevied weather packets stored in our database for station/object DO7CRZ-11. If no packets are shown the sender has not sent any weather packets the latest 10 day(s).
| Time | Temp. | Humidity | Pressure | Rain* | Wind** | Luminosity | Snow |
|---|---|---|---|---|---|---|---|
| 1777841536 | 18.89° C | 42% | 1013 hPa | 0 mm | - | 0 W/m² | - |
| 1777840929 | 18.33° C | 42% | 1012.9 hPa | 0 mm | - | 0 W/m² | - |
| 1777840335 | 18.89° C | 42% | 1013 hPa | 0 mm | - | 0 W/m² | - |
| 1777839736 | 18.33° C | 42% | 1013 hPa | 0 mm | - | 0 W/m² | - |
| 1777839129 | 18.33° C | 42% | 1013.1 hPa | 0 mm | - | 0 W/m² | - |
| 1777838532 | 18.33° C | 42% | 1013.3 hPa | 0 mm | - | 0 W/m² | - |
| 1777837934 | 18.33° C | 41% | 1013.3 hPa | 0 mm | - | 0 W/m² | - |
| 1777837327 | 18.33° C | 41% | 1013.2 hPa | 0 mm | - | 0 W/m² | - |
| 1777836731 | 18.33° C | 41% | 1013.4 hPa | 0 mm | - | 0 W/m² | - |
| 1777836134 | 18.33° C | 41% | 1013.4 hPa | 0 mm | - | 0 W/m² | - |
| 1777835527 | 17.78° C | 41% | 1013.4 hPa | 0 mm | - | 0 W/m² | - |
| 1777834930 | 17.78° C | 40% | 1013.4 hPa | 0 mm | - | 0 W/m² | - |
| 1777834333 | 18.33° C | 38% | 1013.3 hPa | 0 mm | - | 0 W/m² | - |
| 1777833726 | 18.89° C | 38% | 1013.3 hPa | 0 mm | - | 1 W/m² | - |
| 1777832532 | 20° C | 36% | 1013 hPa | 0 mm | - | 4 W/m² | - |
| 1777831330 | 21.11° C | 33% | 1013 hPa | 0 mm | - | 13 W/m² | - |
| 1777830733 | 21.67° C | 32% | 1013.1 hPa | 0 mm | - | 16 W/m² | - |
| 1777830126 | 22.22° C | 31% | 1013.1 hPa | 0 mm | - | 20 W/m² | - |
| 1777829530 | 22.78° C | 30% | 1013.1 hPa | 0 mm | - | 25 W/m² | - |
| 1777828933 | 23.33° C | 29% | 1013.2 hPa | 0 mm | - | 27 W/m² | - |
| 1777828327 | 24.44° C | 28% | 1013.2 hPa | 0 mm | - | 29 W/m² | - |
| 1777827136 | 25.56° C | 26% | 1013.2 hPa | 0 mm | - | 57 W/m² | - |
| 1777826527 | 26.11° C | 26% | 1013.3 hPa | 0 mm | - | 75 W/m² | - |
| 1777825934 | 26.67° C | 26% | 1013.3 hPa | 0 mm | - | 110 W/m² | - |
| 1777825336 | 26.67° C | 25% | 1013.2 hPa | 0 mm | - | 137 W/m² | - |
* Rain latest hour (hover to see other rain measurements)
** Current wind speed in m/s (hover to see current wind gust speed)